Regional Weather Roundup
Issued by NWS

Home | Current Version | Previous Version | Text Only | Print | Product List | Glossary Off
Versions: 1 2 3 4 5 6 7 8 9 10 11 12 13 14 15 16 17 18 19 20 21 22 23 24 25 26 27 28 29 30 31 32 33 34 35 36 37 38 39 40 41 42 43 44 45 46 47 48 49 50

000
ASUS45 KSLC 221910
RWRUT

UTAH REGIONAL WEATHER ROUNDUP
NATIONAL WEATHER SERVICE SALT LAKE CITY UT
1200 PM MST SAT NOV 22 2014

UTZ001>011-023>025-222000-

NORTHERN UTAH

CITY           SKY/WX    TMP DP  RH WIND       PRES   REMARKS
BRIGHAM CITY   CLOUDY    42  37  82 SW5       29.80F
HILL AFB       CLOUDY    39  39 100 S18       29.80F WCI  30
LOGAN          CLOUDY    41  36  82 S17       29.77F
OGDEN          LGT RAIN  41  38  89 SE16      29.80F
PROVO AIRPORT  LGT RAIN  41  34  75 SE14      29.93F
SALT LAKE CITY LGT RAIN  45  37  73 S25G37    29.81F
VERNAL         CLOUDY    38  17  42 CALM      29.89F
WENDOVER       CLOUDY    55  39  54 W17       29.78F
HEBER CITY     LGT SNOW  34  32  93 SW8       29.92F WCI  27
WEST JORDAN    CLOUDY    43  39  87 S25G41    29.83F

$$

UTZ012>022-026-027-222000-

SOUTHERN/CENTRAL UTAH

CITY           SKY/WX    TMP DP  RH WIND       PRES   REMARKS
BLANDING       MOSUNNY   42  23  46 S6        30.12F
BRYCE CANYON   PTSUNNY   44  20  38 SE9       30.04F
CEDAR CITY     PTSUNNY   51  26  37 SW16G24   30.00F
DELTA          CLOUDY    50  26  39 S20G26    29.90F
MILFORD        CLOUDY    53  25  33 S31G39    29.94F
MOAB/CYNLANDS  SUNNY     47  20  34 VRB3      29.91F
PRICE          CLOUDY    39  16  39 VRB3      29.96F
ST GEORGE      CLOUDY    50  21  32 CALM      30.06F
KANAB          SUNNY     54  21  28 S14       30.07F

$$

REGIONAL REPORTS     COLORADO/ARIZONA

CITY           SKY/WX    TMP DP  RH WIND       PRES   REMARKS
CRAIG, CO      MOSUNNY   49  21  33 SW28G33   29.84F
GRAND JUNCTION PTSUNNY   42  22  44 W9        29.93F
RIFLE          PTSUNNY   41  20  43 CALM      29.93F
MONTROSE       MOSUNNY   47  21  35 CALM      29.96F
CORTEZ         SUNNY     49  21  33 SW10      30.04F
PAGE, AZ       NOT AVBL
GRAND CANYON   MOSUNNY   50  18  28 W14G22    30.12F
KINGMAN        SUNNY     64  22  20 SW16      30.07F
FLAGSTAFF      MOSUNNY   52  15  23 SW14      30.12F

$$

REGIONAL REPORTS    NEVADA/IDAHO/WYOMING

CITY           SKY/WX    TMP DP  RH WIND       PRES   REMARKS
LAS VEGAS, NV  PTSUNNY   61  30  31 VRB3      29.98F
ELY            PTSUNNY   52  28  39 S16G26    29.91F
ELKO           CLOUDY    49  44  83 W23G37    29.79F
POCATELLO, ID  LGT RAIN  39  38  96 SW17      29.71R FOG     WCI  30
BURLEY         LGT RAIN  39  36  89 W16       29.73S WCI  30
EVANSTON, WY   SNOW      32  32 100 SW23G32   29.80F VSB 1/4 WCI  19
ROCK SPRINGS   SNOW      32  31  96 W18       29.79F VSB 1/4 WCI  20
KEMMERER       LGT SNOW  34  32  93 SW23G30   29.75F WCI  22

$$



USA.gov is the U.S. government's official web portal to all federal, state and local government web resources and services.